TimeEST,TemperatureF,Dew PointF,Humidity,Sea Level PressureIn,VisibilityMPH,Wind Direction,Wind SpeedMPH,Gust SpeedMPH,PrecipitationIn,Events,Conditions,WindDirDegrees,DateUTC
12:16 AM,28.4,24.8,86,30.04,3.0,NW,3.5,-,0.01,Snow,Light Snow,310,2013-02-03 05:16:00
12:30 AM,26.6,24.8,93,30.03,2.0,NNW,5.8,-,0.01,Snow,Light Snow,330,2013-02-03 05:30:00
12:52 AM,26.6,24.8,93,30.02,2.5,NW,6.9,-,0.01,Snow,Light Snow,310,2013-02-03 05:52:00
12:56 AM,27.0,24.1,89,30.03,2.5,NW,6.9,-,0.01,Snow,Light Snow,310,2013-02-03 05:56:00
1:12 AM,26.6,24.8,93,30.02,4.0,NW,4.6,-,0.00,Snow,Light Snow,310,2013-02-03 06:12:00
1:25 AM,26.6,24.8,93,30.01,4.0,WNW,5.8,-,0.00,Snow,Light Snow,300,2013-02-03 06:25:00
1:56 AM,26.1,23.0,88,30.02,2.0,NW,5.8,-,0.00,Snow,Light Snow,310,2013-02-03 06:56:00
2:40 AM,24.8,21.2,86,30.00,3.0,NNW,3.5,-,0.00,Snow,Light Snow,330,2013-02-03 07:40:00
3:56 AM,26.1,19.9,78,29.99,10.0,Calm,Calm,-,0.00,,Overcast,0,2013-02-03 08:56:00
4:56 AM,25.0,19.9,81,29.97,3.0,NNW,3.5,-,0.00,Snow,Light Snow,340,2013-02-03 09:56:00
5:18 AM,24.8,21.2,86,29.95,2.0,Calm,Calm,-,0.00,Snow,Light Snow,0,2013-02-03 10:18:00
5:44 AM,24.8,21.2,86,29.94,3.0,Calm,Calm,-,0.00,Snow,Light Snow,0,2013-02-03 10:44:00
5:49 AM,24.8,23.0,93,29.93,2.5,Calm,Calm,-,0.00,Snow,Light Snow,0,2013-02-03 10:49:00
6:11 AM,24.8,23.0,93,29.93,3.0,Calm,Calm,-,0.00,Snow,Light Snow,0,2013-02-03 11:11:00
6:39 AM,24.8,23.0,93,29.92,5.0,Calm,Calm,-,0.00,,Overcast,0,2013-02-03 11:39:00
6:56 AM,26.1,23.0,88,29.93,10.0,Calm,Calm,-,0.00,,Overcast,0,2013-02-03 11:56:00
7:04 AM,24.8,24.8,100,29.93,10.0,Calm,Calm,-,N/A,,Overcast,0,2013-02-03 12:04:00
7:23 AM,26.6,24.8,93,29.94,9.0,Calm,Calm,-,N/A,,Overcast,0,2013-02-03 12:23:00
7:56 AM,25.0,21.9,88,29.95,8.0,WSW,4.6,-,N/A,,Overcast,250,2013-02-03 12:56:00
8:31 AM,24.8,23.0,93,29.94,10.0,West,4.6,-,N/A,,Overcast,260,2013-02-03 13:31:00
8:56 AM,25.0,23.0,92,29.94,10.0,West,4.6,-,N/A,,Overcast,280,2013-02-03 13:56:00
9:56 AM,27.0,23.0,85,29.90,10.0,WNW,6.9,-,N/A,,Overcast,300,2013-02-03 14:56:00
10:56 AM,30.0,25.0,82,29.86,10.0,NW,8.1,-,N/A,,Mostly Cloudy,310,2013-02-03 15:56:00
11:56 AM,30.9,25.0,79,29.81,10.0,NNW,8.1,-,N/A,,Scattered Clouds,330,2013-02-03 16:56:00
12:09 PM,32.0,26.6,80,29.81,10.0,North,12.7,-,N/A,,Mostly Cloudy,350,2013-02-03 17:09:00
12:27 PM,30.2,24.8,80,29.80,10.0,North,9.2,-,N/A,,Mostly Cloudy,350,2013-02-03 17:27:00
12:35 PM,30.2,24.8,80,29.80,10.0,NNW,9.2,-,N/A,,Mostly Cloudy,340,2013-02-03 17:35:00
12:56 PM,30.9,25.0,79,29.80,10.0,NNW,12.7,17.3,N/A,,Overcast,330,2013-02-03 17:56:00
1:56 PM,30.0,25.0,82,29.76,10.0,NW,11.5,18.4,N/A,,Overcast,320,2013-02-03 18:56:00
2:07 PM,30.2,24.8,80,29.76,10.0,NW,9.2,-,N/A,,Overcast,320,2013-02-03 19:07:00
2:56 PM,30.9,25.0,79,29.74,10.0,North,10.4,-,N/A,,Mostly Cloudy,350,2013-02-03 19:56:00
3:56 PM,30.0,24.1,79,29.72,10.0,NNW,9.2,17.3,N/A,,Overcast,340,2013-02-03 20:56:00
4:56 PM,30.0,26.1,85,29.68,10.0,NNW,13.8,24.2,N/A,,Overcast,330,2013-02-03 21:56:00
5:46 PM,30.2,26.6,86,29.68,9.0,NW,11.5,25.3,0.00,,Overcast,310,2013-02-03 22:46:00
5:56 PM,32.0,28.0,85,29.69,10.0,North,9.2,17.3,0.00,,Mostly Cloudy,360,2013-02-03 22:56:00
5:59 PM,32.0,28.4,87,29.68,10.0,North,8.1,-,N/A,,Mostly Cloudy,350,2013-02-03 22:59:00
6:36 PM,32.0,28.4,87,29.69,2.5,North,16.1,26.5,0.00,Snow,Light Snow,360,2013-02-03 23:36:00
6:43 PM,32.0,28.4,87,29.67,3.0,North,15.0,25.3,0.00,Snow,Light Snow,350,2013-02-03 23:43:00
6:52 PM,32.0,28.4,87,29.69,3.0,NNW,15.0,23.0,0.00,Snow,Light Snow,330,2013-02-03 23:52:00
6:56 PM,32.0,30.0,92,29.69,3.0,NNW,12.7,23.0,0.00,Snow,Light Snow,340,2013-02-03 23:56:00
7:33 PM,30.2,28.4,93,29.68,3.0,NNW,15.0,19.6,0.00,Snow,Light Snow,330,2013-02-04 00:33:00
7:40 PM,30.2,28.4,93,29.68,3.0,NNW,13.8,19.6,0.00,Snow,Light Snow,330,2013-02-04 00:40:00
7:56 PM,30.0,28.0,92,29.68,1.2,NNW,16.1,25.3,0.00,Snow,Light Snow,330,2013-02-04 00:56:00
8:54 PM,30.2,26.6,86,29.65,2.0,NNW,13.8,23.0,0.00,Snow,Light Snow,330,2013-02-04 01:54:00
8:56 PM,30.0,27.0,88,29.66,2.5,NNW,13.8,23.0,0.00,Snow,Light Snow,330,2013-02-04 01:56:00
9:56 PM,28.9,26.1,89,29.65,2.0,NNW,12.7,24.2,0.00,Snow,Light Snow,330,2013-02-04 02:56:00
10:03 PM,28.4,26.6,93,29.65,7.0,NW,12.7,23.0,N/A,,Overcast,310,2013-02-04 03:03:00
10:56 PM,28.0,24.1,85,29.66,10.0,NW,12.7,21.9,N/A,,Overcast,320,2013-02-04 03:56:00
11:17 PM,28.4,23.0,80,29.66,8.0,NW,15.0,24.2,0.00,Snow,Light Snow,320,2013-02-04 04:17:00
11:56 PM,27.0,21.9,81,29.67,4.0,NW,16.1,23.0,0.00,Snow,Light Snow,320,2013-02-04 04:56:00